Weather in Bibirevo

Russia / Tver Oblast     56°22′36″N   32°18′03″E
temp.,
°C
wind,
m/s
gust,
m/s
humid.,
%
clouds,
%
prec.,
mm/h
press.,
hPa
HPBL,
m
15 april, thu
thu1500:00+5nne4995100 3.1 1020328
03:00+5nne51194100 4.1 1019392
06:00+5ne51295100 0.0 1019462
09:00+5ne51293100 0.3 1020495
12:00+6ne51192100 0.6 1019568
15:00+8ne61285100 0.9 1019749
18:00+7ne61486100 0.0 1019744
21:00+6ne61487100 0.0 1019660
16 april, fri
fri1600:00+6ene6158899 0.1 1019668
03:00+6ne61491100 0.1 1019508
06:00+6ene61492100 0.1 1019612
09:00+6ene51389100 0.2 1020634
12:00+8ene51188100 0.9 1021611
15:00+10ene51080100 1.8 1022821
18:00+10ene61280100 0.3 1021845
21:00+8ene61482100 0.3 1022789
17 april, sat
sat1700:00+8ene51484100 0.0 1023662
03:00+7ene51384100 0.0 1023519
06:00+6ene4128498 0.0 1024502
09:00+6ene41081100 0.0 1025475
12:00+10ene4772100 0.0 1025725
15:00+12ene5862100 0.0 10251209
18:00+12ene596271 0.0 10241104
21:00+8ene4126860 0.0 1025539
18 april, sun
sun1800:00+6ene4126828 0.0 1026464
03:00+4ene412755 0.0 1026385
06:00+3ne412810 0.0 1026352
09:00+8ene510592 0.0 1026602
12:00+12ene57430 0.0 10261263
15:00+13ene56385 0.0 10251673
18:00+12ene464593 0.0 10261499
21:00+6ne39705 0.0 1027199
19 april, mon
mon1900:00+5ene310775 0.0 1028265
03:00+3ene27845 0.0 1028156
06:00+2ene278634 0.0 1029142
09:00+8e366159 0.0 1028474
12:00+12e464585 0.0 10271672
15:00+13e4543100 0.0 10272006
18:00+11ese355696 0.0 1027917
21:00+9e2569100 0.0 1027121